When you browse on this site, cookies collect data to enhance your experience and personalize the content and advertising you see.
Visit our Privacy Policy to learn more. By continuing to use the site, you agree to this use of cookies and data.
  • In Hungary
  • List of Countries
  • For 7 days
  • Water Temperature
  • Satellite Maps
  • Weather Map
  • News
  • Weather Widgets
  • user-avatar
    Login

    Hourly Weather Sudzioka

    Today, 18 November, Sunday

    Time Temperature Precipitation Wind Pressure Humidity
    00:00 +12°C° 0 mm 3 mps 761 mmHg 71%
    01:00 +12°C° 0 mm 3 mps 761 mmHg 71%
    02:00 +12°C° 0 mm 3 mps 761 mmHg 72%
    03:00 +12°C° 0 mm 3 mps 761 mmHg 74%
    04:00 +12°C° 0 mm 3 mps 761 mmHg 75%
    05:00 +13°C° 0 mm 2 mps 761 mmHg 75%
    06:00 +13°C° 0 mm 2 mps 762 mmHg 76%
    07:00 +15°C° 0 mm 2 mps 762 mmHg 71%
    08:00 +16°C° 0 mm 2 mps 762 mmHg 67%
    09:00 +18°C° 0 mm 2 mps 762 mmHg 58%
    10:00 +18°C° 0 mm 2 mps 761 mmHg 56%
    11:00 +19°C° 0 mm 2 mps 761 mmHg 54%
    12:00 +20°C° 0 mm 3 mps 761 mmHg 52%
    13:00 +20°C° 0 mm 3 mps 761 mmHg 55%
    14:00 +19°C° 0 mm 3 mps 760 mmHg 59%
    15:00 +19°C° 0 mm 3 mps 760 mmHg 62%
    16:00 +17°C° 0 mm 3 mps 760 mmHg 69%
    17:00 +16°C° 0 mm 2 mps 761 mmHg 75%
    18:00 +15°C° 0 mm 2 mps 761 mmHg 82%
    19:00 +15°C° 0.1 mm 2 mps 761 mmHg 83%
    20:00 +15°C° 0.1 mm 2 mps 761 mmHg 83%
    21:00 +15°C° 0.1 mm 2 mps 761 mmHg 84%
    22:00 +15°C° 0 mm 2 mps 760 mmHg 82%
    23:00 +15°C° 0 mm 1 mps 760 mmHg 80%

    Tomorrow, 19 November, Monday

    Time Temperature Precipitation Wind Pressure Humidity
    00:00 +15°C° 0 mm 1 mps 760 mmHg 79%
    01:00 +15°C° 0 mm 1 mps 760 mmHg 78%
    02:00 +15°C° 0 mm 1 mps 759 mmHg 77%
    03:00 +15°C° 0 mm 1 mps 759 mmHg 75%
    04:00 +15°C° 0 mm 2 mps 759 mmHg 75%
    05:00 +14°C° 0 mm 2 mps 759 mmHg 75%
    06:00 +14°C° 0 mm 2 mps 759 mmHg 75%
    07:00 +16°C° 0 mm 3 mps 758 mmHg 71%
    08:00 +17°C° 0 mm 3 mps 758 mmHg 66%
    09:00 +18°C° 0 mm 3 mps 758 mmHg 62%
    10:00 +19°C° 0 mm 3 mps 758 mmHg 60%
    11:00 +19°C° 0 mm 3 mps 758 mmHg 58%
    12:00 +20°C° 0 mm 3 mps 757 mmHg 56%
    13:00 +20°C° 0 mm 4 mps 757 mmHg 55%
    14:00 +20°C° 0 mm 4 mps 757 mmHg 55%
    15:00 +20°C° 0 mm 4 mps 756 mmHg 54%
    16:00 +18°C° 0 mm 4 mps 757 mmHg 60%
    17:00 +17°C° 0 mm 4 mps 757 mmHg 65%
    18:00 +14°C° 0 mm 4 mps 758 mmHg 71%
    19:00 +14°C° 0.2 mm 4 mps 758 mmHg 71%
    20:00 +13°C° 0.2 mm 3 mps 759 mmHg 71%
    21:00 +13°C° 0.2 mm 3 mps 759 mmHg 71%
    22:00 +12°C° 0.1 mm 3 mps 759 mmHg 71%
    23:00 +12°C° 0.1 mm 3 mps 759 mmHg 71%

    Day after tomorrow, 20 November, Tuesday

    Time Temperature Precipitation Wind Pressure Humidity
    00:00 +11°C° 0.1 mm 3 mps 759 mmHg 71%
    01:00 +11°C° 0 mm 3 mps 760 mmHg 71%
    02:00 +12°C° 0 mm 2 mps 760 mmHg 71%
    03:00 +10°C° 0 mm 2 mps 760 mmHg 70%
    04:00 +10°C° 0 mm 2 mps 761 mmHg 69%
    05:00 +10°C° 0 mm 2 mps 761 mmHg 69%
    06:00 +10°C° 0 mm 2 mps 761 mmHg 68%
    07:00 +12°C° 0 mm 2 mps 762 mmHg 63%
    08:00 +14°C° 0 mm 2 mps 762 mmHg 58%
    09:00 +15°C° 0 mm 2 mps 762 mmHg 52%
    10:00 +16°C° 0 mm 2 mps 762 mmHg 50%
    11:00 +17°C° 0 mm 2 mps 762 mmHg 48%
    12:00 +17°C° 0 mm 2 mps 762 mmHg 45%
    13:00 +17°C° 0.1 mm 3 mps 762 mmHg 45%
    14:00 +17°C° 0.1 mm 3 mps 762 mmHg 46%
    15:00 +17°C° 0.1 mm 3 mps 762 mmHg 46%
    16:00 +14°C° 0 mm 3 mps 762 mmHg 51%
    17:00 +13°C° 0 mm 3 mps 763 mmHg 57%
    18:00 +11°C° 0 mm 3 mps 764 mmHg 63%
    19:00 +11°C° 0 mm 3 mps 764 mmHg 64%
    20:00 +10°C° 0 mm 3 mps 765 mmHg 65%
    21:00 +10°C° 0 mm 3 mps 765 mmHg 66%
    22:00 +10°C° 0 mm 3 mps 765 mmHg 67%
    23:00 +9°C° 0 mm 3 mps 765 mmHg 67%

    21 November, Wednesday

    Time Temperature Precipitation Wind Pressure Humidity
    00:00 +9°C° 0 mm 2 mps 765 mmHg 67%
    01:00 +9°C° 0 mm 2 mps 765 mmHg 66%
    02:00 +9°C° 0 mm 2 mps 765 mmHg 66%
    03:00 +9°C° 0 mm 2 mps 765 mmHg 65%
    04:00 +8°C° 0 mm 2 mps 765 mmHg 64%
    05:00 +8°C° 0 mm 2 mps 765 mmHg 63%
    06:00 +8°C° 0 mm 2 mps 765 mmHg 61%
    07:00 +10°C° 0 mm 2 mps 765 mmHg 56%
    08:00 +14°C° 0 mm 2 mps 765 mmHg 51%
    09:00 +16°C° 0 mm 1 mps 765 mmHg 46%
    10:00 +17°C° 0 mm 2 mps 765 mmHg 41%
    11:00 +18°C° 0 mm 2 mps 764 mmHg 36%
    12:00 +20°C° 0 mm 2 mps 764 mmHg 30%
    13:00 +19°C° 0 mm 2 mps 763 mmHg 32%
    14:00 +19°C° 0 mm 3 mps 763 mmHg 34%
    15:00 +19°C° 0 mm 3 mps 762 mmHg 36%
    16:00 +17°C° 0 mm 3 mps 762 mmHg 40%
    17:00 +15°C° 0 mm 2 mps 763 mmHg 44%
    18:00 +13°C° 0 mm 2 mps 763 mmHg 49%
    19:00 +13°C° 0 mm 2 mps 763 mmHg 48%
    20:00 +12°C° 0 mm 2 mps 762 mmHg 47%
    21:00 +12°C° 0 mm 2 mps 762 mmHg 47%
    22:00 +12°C° 0 mm 2 mps 762 mmHg 44%
    23:00 +12°C° 0 mm 2 mps 762 mmHg 42%

    22 November, Thursday

    Time Temperature Precipitation Wind Pressure Humidity
    00:00 +13°C° 0 mm 2 mps 761 mmHg 40%
    01:00 +13°C° 0 mm 2 mps 761 mmHg 38%
    02:00 +13°C° 0 mm 2 mps 761 mmHg 37%
    03:00 +12°C° 0 mm 3 mps 760 mmHg 35%
    04:00 +12°C° 0 mm 3 mps 760 mmHg 36%
    05:00 +11°C° 0 mm 3 mps 759 mmHg 36%
    06:00 +11°C° 0 mm 3 mps 759 mmHg 37%
    07:00 +12°C° 0 mm 3 mps 759 mmHg 42%
    08:00 +13°C° 0 mm 3 mps 759 mmHg 46%
    09:00 +13°C° 0 mm 3 mps 759 mmHg 51%
    10:00 +14°C° 0.1 mm 2 mps 758 mmHg 52%
    11:00 +15°C° 0.1 mm 2 mps 758 mmHg 54%
    12:00 +15°C° 0.1 mm 2 mps 757 mmHg 55%
    13:00 +14°C° 0 mm 3 mps 757 mmHg 56%
    14:00 +14°C° 0 mm 3 mps 756 mmHg 56%
    15:00 +14°C° 0 mm 3 mps 756 mmHg 57%
    16:00 +13°C° 0 mm 3 mps 756 mmHg 63%
    17:00 +11°C° 0 mm 4 mps 757 mmHg 68%
    18:00 +10°C° 0 mm 4 mps 757 mmHg 74%
    19:00 +9°C° 0 mm 5 mps 757 mmHg 72%
    20:00 +8°C° 0 mm 5 mps 758 mmHg 71%
    21:00 +8°C° 0 mm 6 mps 758 mmHg 70%
    22:00 +7°C° 0 mm 6 mps 758 mmHg 67%
    23:00 +7°C° 0 mm 6 mps 758 mmHg 65%

    23 November, Friday

    Time Temperature Precipitation Wind Pressure Humidity
    00:00 +5°C° 0 mm 6 mps 758 mmHg 63%
    01:00 +5°C° 0 mm 6 mps 758 mmHg 63%
    02:00 +6°C° 0 mm 5 mps 758 mmHg 63%
    03:00 +5°C° 0 mm 5 mps 758 mmHg 63%
    04:00 +5°C° 0 mm 5 mps 759 mmHg 63%
    05:00 +5°C° 0 mm 5 mps 759 mmHg 62%
    06:00 +5°C° 0 mm 5 mps 759 mmHg 62%
    07:00 +7°C° 0 mm 5 mps 760 mmHg 56%
    08:00 +8°C° 0 mm 5 mps 760 mmHg 51%
    09:00 +10°C° 0 mm 6 mps 760 mmHg 46%
    10:00 +12°C° 0 mm 5 mps 760 mmHg 43%
    11:00 +13°C° 0 mm 5 mps 759 mmHg 39%
    12:00 +14°C° 0 mm 5 mps 759 mmHg 36%
    13:00 +14°C° 0 mm 5 mps 759 mmHg 37%
    14:00 +14°C° 0 mm 5 mps 759 mmHg 37%
    15:00 +13°C° 0 mm 5 mps 759 mmHg 37%
    16:00 +12°C° 0 mm 4 mps 759 mmHg 43%
    17:00 +10°C° 0 mm 4 mps 760 mmHg 49%
    18:00 +7°C° 0 mm 4 mps 760 mmHg 55%
    19:00 +8°C° 0 mm 3 mps 761 mmHg 56%
    20:00 +7°C° 0 mm 3 mps 761 mmHg 57%
    21:00 +7°C° 0 mm 3 mps 761 mmHg 58%
    22:00 +7°C° 0 mm 3 mps 761 mmHg 57%
    23:00 +7°C° 0 mm 3 mps 761 mmHg 56%
    Show more